Vertical_Velocity
0 0 0 0 0 0 0 0 0 0 0 0 0 0 0 1 1 1 1 1 0 -0 -0 0 1 1 0 -0 -0 0 0 1 1 0 0 -0 0 0 -0 -0 0 0 1 1 1 1 1 -0 -0 -1 -0 -0 -1 -2 -3 -3 -1 2 3 2 1 1 1 -0 -1 -0 1 3 2 -1 -1 1 2 1 -3 -1 -0 0 -0 -0 -0 -0 0 0 0 0 1 -0 -1 -0 -0 -0 -0 -0 -0 -1 -1 -0 -0 0 0 0 0
-0 -0 -0 0 0 0 0 0 0 0 0 0 0 0 0 1 1 1 1 1 0 0 -0 0 1 1 1 -0 -0 0 1 0 -0 1 2 1 1 1 1 0 0 1 1 2 2 2 1 0 -0 -1 -0 -0 -0 -1 -2 -3 -2 1 3 2 2 2 2 1 0 0 2 6 5 1 -0 -0 1 2 1 -1 -1 0 -0 -1 -0 -0 0 0 -0 -0 -0 -1 -1 -0 0 0 -0 -0 -0 -0 -1 -1 -0 -0 0 0 -0
-0 -0 -0 -0 -0 -0 0 1 1 1 0 0 -0 -0 -0 0 1 1 1 1 1 0 0 0 1 1 2 1 0 0 0 0 -0 0 2 1 1 1 0 1 1 1 1 2 2 2 2 1 -0 -1 -0 -0 0 -0 -2 -3 -2 -0 3 3 2 2 2 1 0 0 2 6 6 3 2 1 0 1 4 0 -1 -0 -0 -1 -0 -0 0 0 -0 -0 -1 -1 -1 -0 0 -0 -0 -0 -0 -0 -0 -0 -0 -0 -0 0 0
0 -0 -0 -0 -0 -0 -0 0 1 1 1 1 0 -0 -0 -0 -0 1 1 1 1 1 1 0 0 1 2 1 1 1 0 -0 -0 0 1 0 0 -0 0 1 1 1 1 2 2 2 2 1 -0 -1 -0 -0 0 -0 -1 -3 -3 -1 2 4 3 2 2 1 0 -0 0 2 3 4 5 2 0 1 5 4 2 -1 -0 -1 -0 -0 -0 -0 -0 -1 -1 -0 -0 -0 -0 -0 -0 -0 -0 -0 -0 -0 -0 0 0 0 0
1 0 -0 -0 -0 -0 -0 -0 0 1 1 1 1 0 -0 -0 -0 -0 0 1 1 1 1 1 1 1 1 1 0 -0 -0 -0 0 0 1 1 0 0 1 2 2 2 3 2 2 2 2 1 -0 -1 -1 -1 -0 -0 -1 -3 -3 -1 2 4 4 3 1 1 -0 -1 -2 -2 0 3 5 1 -0 1 6 8 4 -0 -0 -0 -0 -0 -0 -0 -1 -1 -1 -0 -0 -0 0 0 -0 -0 -0 -0 -0 -0 0 0 0 0 0
1 1 0 -0 -0 -0 -0 -0 -0 0 0 0 1 1 1 0 -0 -0 -0 -0 0 0 1 1 1 1 0 1 -0 -1 1 0 0 0 1 1 1 1 1 1 2 2 3 1 2 2 2 1 -0 -1 -1 -1 -1 -1 -1 -2 -2 -1 1 4 4 3 2 0 -1 -2 -3 -3 -0 3 6 1 -0 1 6 7 3 -1 1 0 -0 -0 -0 -1 -1 -1 -1 -0 0 0 0 0 0 0 -0 -0 -0 0 0 1 1 1 0
0 1 1 0 -0 -0 -1 -0 0 0 0 0 0 0 1 1 1 0 -0 -1 -1 -1 -0 1 1 1 1 1 0 -0 -0 -0 -0 0 0 1 1 2 3 1 1 1 0 1 1 2 2 1 0 -1 -1 -2 -2 -2 -2 -2 -2 -1 -0 2 4 4 2 1 -1 -2 -3 -3 -2 1 5 2 1 2 2 4 2 -1 -0 0 -0 -0 -0 -1 -1 -1 -1 -0 0 0 0 1 1 1 0 -0 -0 0 0 1 1 1 0
-0 -0 0 0 0 -0 -1 -1 -0 0 1 0 0 0 0 1 1 1 0 -1 -1 -2 -1 0 1 1 2 1 1 -0 -1 -0 0 -0 -1 0 1 3 6 2 1 1 0 1 1 1 2 1 1 -0 -1 -2 -2 -2 -2 -2 -2 -1 -1 1 3 4 3 1 -0 -2 -3 -4 -3 -1 1 1 2 2 -0 2 4 4 -0 -0 -1 -1 -1 -1 -1 -1 -1 -1 -0 -0 0 1 1 1 0 0 0 0 0 0 1 1 0
-1 -1 -0 -0 0 0 -0 -1 -1 -0 -0 0 1 1 1 0 0 0 -0 -0 -1 -1 -1 -0 0 1 1 1 1 0 -1 -0 0 0 -1 -0 1 2 4 2 1 1 1 1 1 1 1 1 1 0 -1 -1 -2 -2 -2 -2 -2 -2 -1 0 2 3 4 2 1 -1 -3 -3 -1 1 -0 1 2 2 1 0 2 4 3 -1 -2 -2 -1 -1 -1 -1 -2 -1 -1 -0 -0 0 1 1 0 0 0 1 0 0 0 1 1
-1 -1 -1 -1 -0 0 0 -0 -1 -1 -1 -0 0 1 1 1 0 -0 -0 -0 -0 -0 -0 -0 -0 -0 0 0 1 1 1 -0 -0 -0 -0 -0 0 1 1 3 2 1 0 0 1 1 1 1 1 1 0 -1 -2 -2 -1 -2 -2 -2 -1 -0 1 3 4 3 2 -0 -2 -3 -2 -0 -0 1 3 5 5 1 0 2 4 -0 -2 -3 -1 -1 -1 -1 -1 -1 -1 -1 -0 -0 -0 -0 -0 0 0 1 0 0 0 0 1
-1 -1 -2 -1 -1 -0 0 0 -0 -0 -1 -1 -0 -0 0 1 1 0 -0 -0 0 0 -0 -0 -1 -0 -0 -0 0 0 1 -0 -1 -0 1 -0 0 1 1 3 3 2 -1 -0 -0 -0 0 1 2 1 1 -1 -1 -1 -1 -1 -2 -2 -1 -0 1 2 3 3 2 0 -2 -3 -4 -3 -0 4 6 6 5 1 -0 1 2 2 -0 -2 -1 -1 -0 -0 -1 -1 -1 -1 -1 -1 -0 -0 -0 -0 0 0 0 0 -0 0 0
0 -0 -1 -2 -2 -1 -0 0 0 0 -0 -0 -0 -0 -0 -0 0 1 1 1 1 1 0 -0 -1 -0 -0 -0 -0 -0 -0 -1 -1 -1 0 0 0 1 0 0 1 1 -2 -1 -1 -1 -0 1 2 2 1 -1 -1 -1 -1 -0 -1 -1 -1 -1 0 1 2 2 1 0 -1 -1 -1 0 5 9 8 5 4 1 -1 -1 -1 1 1 1 -1 -0 -0 -0 -1 -1 -1 -1 -1 -1 -1 -1 -1 -0 -0 0 0 0 -0 -0 -0
2 1 -0 -1 -2 -2 -1 -1 -0 0 0 0 0 -0 -0 -1 -0 0 1 2 2 2 1 -0 -0 -0 -0 -1 -1 -2 -2 -2 -2 -1 -1 -0 -0 -0 -0 -1 -1 -1 -1 -1 -1 -0 0 1 2 2 1 -0 -1 -1 -1 -0 -0 -1 -1 -1 -0 1 2 1 1 1 2 6 7 8 12 8 4 2 4 1 -1 -1 -2 -2 -1 -0 -0 -0 -1 -2 -1 -1 -1 -1 -1 -1 -1 -1 -1 -1 -0 0 0 0 -0 -0 -0
2 2 1 0 -0 -1 -1 -1 -1 -0 0 1 1 1 0 -0 -1 -0 1 2 3 3 2 1 0 -0 -1 -1 -2 -2 -2 -2 -2 -1 -1 -1 -1 -1 -1 -1 -1 -1 -0 0 1 1 1 2 2 2 1 -0 -1 -1 -1 -0 0 0 -0 -1 -0 0 1 1 1 3 9 14 12 9 11 7 4 3 4 -0 -1 -1 -1 -2 -2 -1 1 1 -1 -2 -2 -1 -1 -1 -1 -1 -1 -1 -1 -1 -0 -0 0 0 -0 -0 -0
2 2 2 1 1 0 -0 -1 -1 -0 -0 0 1 1 1 0 -0 -0 0 2 3 3 3 2 1 -0 -1 -2 -3 -3 -2 -2 -1 -1 -1 -1 -2 -2 -2 -1 -0 -0 1 3 4 4 4 4 3 2 1 1 -0 -1 -1 -0 1 1 1 -0 -1 -0 0 0 1 4 13 16 10 4 6 10 9 6 1 -1 -1 -1 -1 -1 -2 -1 -0 0 2 3 -0 -1 -1 -1 -1 -1 -2 -1 -1 -1 -1 -1 -0 -0 -0 -0 -0
1 1 1 1 1 1 0 -0 -0 -1 -0 -0 0 1 1 1 1 1 1 2 2 2 2 2 1 0 -1 -2 -2 -2 -2 -2 -1 -1 -1 -1 -1 -1 -1 -0 0 0 2 4 5 6 6 5 4 3 2 1 -0 -1 -1 -0 1 2 2 0 -1 -1 -1 -0 0 3 9 9 6 4 6 12 10 4 -2 -1 -1 -1 -1 -1 -1 -2 -2 -1 2 4 2 0 -0 -0 -1 -1 -2 -2 -1 -1 -1 -1 -1 -1 -0 -0 -0
0 -0 -0 -0 -0 0 0 0 -0 -0 -0 -0 -0 1 1 1 2 2 2 2 1 1 1 2 1 1 -0 -1 -2 -2 -2 -2 -1 -1 -1 -1 -0 -0 0 1 1 0 1 2 3 4 6 5 4 3 3 2 1 -0 -1 -0 1 2 2 1 -0 -1 -2 -1 -0 1 4 4 3 3 6 8 8 6 2 0 -0 -0 -0 -1 -1 -1 -2 -2 -1 1 2 2 1 -1 -0 -1 -1 -1 -1 -1 -1 -1 -2 -1 -1 -0 -0
0 -0 -1 -1 -1 -1 -0 -0 -0 -0 -0 -0 -0 0 1 2 2 2 3 2 1 1 1 2 2 1 0 -0 -1 -1 -2 -2 -2 -1 -1 -1 -1 -0 -0 0 0 -0 -0 1 1 2 2 2 2 2 3 2 1 0 -0 -0 1 2 2 2 0 -1 -2 -2 -1 0 2 4 3 1 2 2 6 11 12 4 1 0 1 0 0 -0 -1 -1 -0 0 2 4 2 -0 -1 -1 -1 -1 -1 -1 -1 -2 -2 -2 -1 -1 -0
-0 -1 -1 -1 -1 -2 -1 -1 -0 -0 -0 -0 -0 0 1 2 2 3 3 2 1 1 1 2 2 2 1 -0 -0 -1 -1 -1 -1 -1 -1 -1 -1 -1 -1 -1 -1 -0 -0 0 0 0 0 -0 0 1 2 2 2 1 -0 -0 0 1 2 2 1 -1 -3 -2 -2 0 4 8 6 3 3 4 8 13 16 7 1 0 2 2 1 1 0 0 0 1 1 3 2 -0 -1 -1 -1 -1 -1 -1 -1 -1 -2 -2 -2 -1 -1
-1 -1 -1 -2 -2 -2 -2 -1 -1 -1 -1 -1 -0 0 1 2 2 2 2 2 2 1 1 2 2 2 1 0 -0 -1 -1 -1 -1 -0 0 -0 -1 -2 -3 -2 -1 -0 1 1 0 -0 -1 -0 1 1 1 2 2 1 -1 -1 -0 1 2 2 2 -0 -2 -3 -2 -0 5 10 8 5 4 6 10 12 12 4 0 1 4 2 1 1 1 1 1 1 0 0 0 0 -1 -2 -2 -1 -1 -1 -1 -1 -1 -2 -2 -2 -1
-2 -2 -2 -2 -2 -2 -2 -2 -2 -1 -2 -1 -0 1 2 2 2 2 2 2 2 2 1 1 2 2 1 0 -0 -0 -1 -0 -0 0 2 1 -1 -3 -4 -3 -1 -0 1 1 0 -1 -1 0 3 4 4 2 1 0 -1 -1 -1 -0 1 2 2 1 -1 -2 -2 -1 2 8 9 7 6 6 6 6 6 1 -0 -0 1 0 -0 -0 0 1 1 1 0 -0 -1 -1 -1 -2 -2 -1 -1 -1 -1 -1 -1 -1 -1 -2 -1
-2 -3 -2 -1 -1 -2 -2 -3 -2 -2 -3 -1 0 1 1 3 2 1 2 2 2 2 1 1 1 2 1 0 -0 -0 -1 -0 -0 1 3 2 -0 -3 -3 -3 -2 -1 0 1 0 -0 1 1 3 5 7 2 0 1 0 -0 -0 -0 1 2 3 2 0 -1 -2 -2 -1 3 6 8 6 9 6 2 2 1 0 -0 -0 -1 -1 -1 -1 -0 0 1 0 0 -1 -1 -1 -2 -1 -1 -1 -1 -1 -1 -1 -1 -1 -1 -1
-3 -3 -3 -1 -1 -1 -2 -3 -3 -3 -4 -1 1 2 1 3 2 1 2 2 2 2 1 1 1 1 2 1 -0 -1 -1 -1 -0 1 4 3 0 -2 -2 -2 -2 -1 -0 -0 -0 -0 2 2 1 2 7 3 3 3 2 1 1 1 1 3 4 4 2 2 1 -0 -1 0 2 4 5 10 7 1 -0 -0 1 3 3 0 -1 -1 -1 -1 -0 0 0 0 -0 -1 -1 -1 -1 -1 -1 -1 -0 -0 -0 -1 -1 -1 -1
-3 -3 -4 -2 -1 -1 -1 -2 -3 -4 -4 -1 1 2 2 2 1 1 2 2 2 2 1 1 0 1 2 1 -0 -1 -1 -1 -0 2 4 3 1 -0 -0 -1 -2 -2 -1 -2 -1 -0 3 1 -2 -2 6 8 10 9 2 2 1 1 2 5 7 8 7 9 7 4 2 1 0 1 3 5 4 0 -3 -3 0 5 10 5 1 -1 -1 -1 -1 -0 0 0 0 -0 -1 -1 -1 -1 -1 -1 -0 -0 -0 -0 -0 -1 -1
-4 -3 -5 -2 -1 -2 -1 -1 -2 -4 -3 -2 0 2 2 1 1 1 2 2 2 2 1 0 -0 0 2 1 0 -0 -0 -1 0 2 4 4 3 2 1 -0 -1 -1 -1 -3 -2 -0 4 3 -2 -2 10 14 14 10 1 1 1 2 4 6 8 10 11 13 13 11 9 4 0 -1 1 1 2 1 -5 -4 -1 4 12 9 5 1 -2 -2 -2 -1 0 0 0 -0 -1 -1 -1 -1 -1 -1 -0 -0 -0 -0 -0 -0 -0
-1 -3 -5 -2 -2 -2 -0 -1 -1 -2 -2 -2 0 2 1 1 1 1 2 2 2 2 1 0 -0 0 2 1 1 1 -0 -0 1 2 4 5 4 3 2 1 0 -0 -1 -3 -3 -1 5 4 -2 -2 15 20 15 7 -0 2 1 1 5 7 8 9 9 8 9 11 11 8 2 -1 -0 -1 0 0 -3 -2 -2 1 8 9 8 3 -3 -3 -3 -2 -0 0 0 -0 -1 -1 -1 -1 -1 -1 -0 -0 -0 -0 -0 -0 -0
1 -0 -2 -1 -3 -3 -0 -1 -1 -1 -0 -0 1 1 1 0 1 1 2 1 2 2 1 1 1 1 0 1 2 2 0 1 2 3 5 5 5 4 2 1 1 0 -0 -3 -3 -1 4 4 -2 -4 9 16 10 1 -1 -0 -1 -2 2 5 5 5 4 1 3 5 5 6 3 -0 0 -0 -1 -2 -2 -2 -1 -0 4 7 5 2 -1 -2 -3 -3 -1 0 0 0 -0 -1 -1 -1 -1 -1 -0 -0 -0 -0 -0 -0 -0
1 1 3 1 -1 -2 -1 -2 -1 0 0 2 2 1 -0 0 0 0 2 1 2 2 2 2 1 1 0 2 2 2 1 2 2 3 4 4 4 4 3 2 1 1 -0 -1 -2 -1 2 3 -1 -2 3 8 6 1 2 -0 -1 -1 3 6 6 3 0 -1 0 2 1 1 1 1 1 1 1 0 -0 1 2 4 6 5 5 5 8 6 0 -3 -1 -0 0 0 -0 -0 -1 -1 -2 -1 -1 -0 0 0 -0 -0 -0
-1 -0 3 2 1 1 -1 -2 -1 0 0 4 4 1 -0 0 -0 0 2 1 2 2 2 2 1 1 1 1 2 2 2 2 2 2 3 3 3 3 3 2 1 0 -0 1 -0 -1 -0 1 0 -0 0 3 3 3 2 0 -0 -1 -0 2 3 3 3 1 0 0 -0 0 0 1 2 4 5 5 2 1 3 6 10 8 4 4 9 7 2 -2 -1 -0 0 0 -0 -1 -1 -1 -2 -1 -1 -0 -0 -0 -0 -0 -0
-1 -1 -0 -1 1 3 0 -0 -0 -0 1 5 4 1 0 0 0 0 1 1 1 2 2 3 2 2 1 1 1 2 -0 2 2 1 2 2 2 2 3 2 1 1 1 1 0 -0 -1 -1 1 2 1 -0 1 3 3 1 -1 -2 -1 -1 -1 -1 1 1 1 2 1 0 -0 0 2 5 8 8 5 3 2 4 12 13 8 2 3 6 3 -1 -1 -1 -1 -1 -1 -1 -1 -2 -2 -2 -1 -1 -1 -0 -0 -0 -0
0 -0 -1 -2 -1 1 -0 2 1 1 2 3 2 1 1 1 1 0 1 2 2 2 3 3 3 2 1 1 1 0 -1 2 2 1 3 2 2 2 2 1 2 1 0 -0 0 -0 -2 -1 2 3 1 -1 -0 2 2 0 -2 -3 -1 -1 -0 -1 -1 -0 1 2 2 1 0 0 2 6 8 8 8 5 4 4 8 7 5 3 3 6 5 2 0 2 3 2 -0 -1 -1 -2 -2 -2 -2 -1 -1 -1 -0 -0 -0
1 1 -1 -1 -1 -1 -1 2 2 1 3 2 0 -0 1 2 2 1 3 3 2 2 4 3 3 2 1 1 -0 -1 1 2 2 2 4 3 2 2 1 2 2 1 -0 0 -0 -1 -3 0 0 -0 0 1 1 2 4 1 -1 -4 -3 -1 -1 -1 -2 -1 0 2 2 2 1 1 2 6 8 8 9 7 5 4 4 -1 -1 2 7 4 1 -1 0 6 12 13 6 1 -0 -1 -2 -2 -2 -2 -2 -1 -1 -1 -0
2 2 -0 0 -1 -1 0 1 1 2 5 1 -1 -1 1 2 2 2 4 3 2 3 5 3 2 3 3 2 0 -0 3 1 2 3 4 3 2 1 1 2 2 1 1 1 -0 -2 -1 -1 -1 -0 1 2 2 2 4 4 1 -0 -1 -1 -2 -2 -2 -2 -1 1 2 2 1 1 1 5 7 8 8 8 6 4 3 -2 -2 1 7 3 0 -1 -1 6 11 13 12 6 2 1 -0 -1 -1 -1 -1 -2 -1 -1 -0
1 2 1 0 -1 -1 1 -0 1 3 5 1 -0 -0 1 1 1 2 4 2 3 4 4 3 3 3 4 3 2 1 2 -0 1 3 2 2 2 1 2 2 1 1 4 2 -0 -1 -0 -0 0 1 2 2 1 1 3 3 3 2 1 -0 -1 -1 -2 -2 -1 -0 1 1 1 0 -0 2 3 4 5 6 5 3 1 -1 -2 -2 0 2 1 -1 -2 2 4 6 10 10 8 4 1 1 0 0 -0 -1 -1 -1 -0
1 1 2 0 -0 -0 1 -0 2 4 4 1 1 1 0 -0 0 1 3 2 3 4 2 3 4 4 4 3 3 3 1 -1 1 2 2 3 2 2 3 1 1 2 4 1 1 1 1 1 1 2 2 1 -0 -0 -0 1 2 2 1 0 0 0 -0 -0 -0 -0 0 -0 -0 0 1 2 1 0 0 2 3 3 1 1 -1 -2 -2 -1 -2 -2 -2 -1 1 2 3 9 11 8 2 1 2 2 2 1 0 -0 -0
1 1 1 0 -0 -0 -0 0 2 3 2 1 2 2 1 -0 -0 0 2 2 3 4 1 4 4 4 3 4 4 3 1 0 1 1 1 3 3 2 3 1 1 3 4 2 3 4 3 2 2 2 2 0 -1 -1 -1 -0 1 1 0 0 1 2 2 1 1 1 0 -0 -0 1 2 3 2 0 -1 0 1 2 2 1 1 -0 -1 -0 -0 -0 -1 -1 1 1 -2 5 9 10 6 4 3 3 3 3 2 1 -0
1 1 1 -0 -0 -0 -0 1 2 2 1 1 2 2 1 0 0 1 -0 1 2 3 1 4 4 2 4 5 4 2 1 2 1 0 1 2 3 3 4 1 2 4 3 2 3 4 4 3 2 2 1 -0 -0 -0 -1 0 2 2 0 0 1 2 3 2 2 1 1 1 1 1 2 2 2 0 -1 -0 0 1 2 2 2 1 1 1 2 2 1 -0 0 0 -1 1 5 7 8 7 6 4 1 2 2 1 -0
1 1 1 -0 -0 0 -0 0 2 2 1 2 1 1 1 -0 1 1 -1 -0 0 1 2 3 2 2 6 4 3 2 2 3 1 -0 1 2 3 4 3 2 3 4 1 1 2 3 3 2 2 2 -0 1 1 1 -0 2 3 2 2 2 2 2 3 3 3 3 2 2 2 2 2 2 1 1 0 -0 0 0 1 2 2 2 2 2 2 2 2 2 1 2 3 4 3 2 4 6 8 6 -1 1 1 -0 -1
1 0 1 0 -0 -0 -1 1 1 1 1 2 1 -0 1 -1 -0 0 -0 -1 -1 -0 2 1 1 3 6 2 2 3 3 3 2 1 2 3 3 3 2 3 3 1 -1 1 2 2 0 1 2 2 -1 1 0 -1 -0 2 2 2 4 3 2 2 2 3 4 5 4 4 3 3 2 2 1 1 1 1 1 0 0 1 2 3 3 3 2 1 1 2 2 3 4 9 7 2 1 5 10 10 4 1 -0 -1 -1
1 0 -0 -0 -0 -1 -0 0 -0 -0 1 2 1 -0 0 -1 -2 -1 1 -1 -1 -1 -0 -2 1 3 2 1 3 4 2 3 3 2 3 3 2 1 3 4 2 0 -0 2 2 1 1 3 2 1 -0 -0 -2 -2 1 1 2 3 4 3 2 2 1 2 3 5 5 5 5 4 3 2 1 0 1 1 1 1 0 1 2 2 3 2 2 1 0 1 0 -0 1 7 8 6 2 3 9 14 14 6 1 -1 -2
0 -0 -1 -1 -1 -1 -0 -1 -1 -0 1 0 -0 -0 -1 -2 -3 -2 1 -0 -1 -2 -2 -2 -0 1 -1 2 4 3 1 4 4 3 3 3 2 1 3 3 2 1 2 2 1 1 3 4 3 1 1 -1 -1 -0 1 1 2 4 3 3 2 1 -0 0 1 2 4 5 5 5 4 2 1 -0 0 1 1 1 1 1 1 1 2 2 1 1 1 2 1 -0 -0 3 6 6 1 2 5 9 13 11 6 1 -3
-0 -0 -1 -1 -1 -1 -1 -3 -1 -0 -1 -1 -1 -1 -1 -3 -4 -2 -0 -1 -1 -1 -1 -2 -3 -2 -1 2 2 1 0 4 4 2 3 3 2 2 2 1 1 1 2 1 1 2 4 3 3 2 2 1 2 3 1 2 3 3 2 3 2 -0 -1 -1 -0 0 2 3 4 4 4 3 2 -0 -0 1 1 2 1 1 1 1 1 1 1 1 1 1 1 1 1 2 3 3 1 5 5 4 4 8 9 6 1
-1 -1 -1 -1 -2 -2 -2 -2 -2 -1 -1 -2 -1 -1 -2 -4 -3 -2 -2 -2 -1 -0 -0 -2 -4 -4 -2 0 -0 -0 2 3 2 2 3 3 2 2 2 1 1 1 1 1 1 2 2 3 3 3 2 3 4 4 3 4 3 2 3 2 1 1 1 0 0 1 2 2 3 3 3 5 4 2 0 1 2 2 2 2 1 1 1 1 1 1 1 1 1 1 1 -0 0 1 3 8 6 3 0 1 6 10 12
-1 -1 -1 -2 -2 -2 -2 -2 -1 -1 -1 -1 -2 -2 -3 -4 -3 -2 -5 -3 -1 0 -1 -1 -2 -3 -3 -2 -1 -0 3 1 1 2 3 2 3 3 2 2 1 1 0 2 1 1 2 3 2 2 3 4 4 5 6 6 4 2 2 1 1 2 3 3 3 3 3 4 4 4 3 4 4 3 2 2 3 3 4 3 3 2 2 2 2 1 1 1 1 1 2 1 0 0 2 6 5 2 1 -1 1 6 14
-1 -1 -2 -2 -2 -2 -3 -2 -1 -1 -1 -1 -1 -2 -3 -3 -3 -3 -5 -3 -1 -0 -1 0 -0 -2 -4 -3 -2 -1 0 -1 -0 2 2 2 2 3 3 2 2 1 2 2 1 1 4 1 2 3 4 4 4 6 8 6 4 3 3 3 2 2 4 4 4 3 4 5 4 4 4 4 4 4 3 3 3 4 4 4 4 4 3 3 2 2 1 0 1 1 2 2 1 1 2 4 3 1 -0 0 0 2 8
-1 -1 -1 -1 -2 -2 -3 -2 -2 -2 -2 -1 -1 -1 -2 -2 -2 -3 -4 -4 -3 -2 -1 0 0 -1 -4 -3 -2 -1 -2 -2 -0 1 1 1 2 3 4 2 2 2 3 1 1 2 3 1 3 5 4 4 5 7 7 6 5 4 5 3 2 2 4 3 2 2 3 4 4 4 4 5 5 4 3 3 3 3 4 4 4 4 4 3 2 2 1 0 0 1 1 2 1 1 1 2 1 -1 0 3 2 0 3
-1 -1 -1 -1 -1 -2 -2 -2 -2 -2 -2 -1 -1 -1 -1 -1 -2 -2 -4 -3 -3 -3 -3 -0 -0 -1 -2 -1 -1 -2 -3 -1 -0 0 -1 -0 2 4 3 2 3 4 2 1 2 4 2 2 4 5 3 5 6 6 6 5 4 4 4 0 1 2 2 -0 -1 0 1 2 2 2 3 5 5 4 3 2 2 2 3 3 3 3 3 2 2 1 1 0 -0 -0 0 1 1 1 1 1 1 1 2 4 2 -0 -0
-1 -1 -1 -1 -1 -1 -1 -1 -2 -2 -1 -1 -1 -1 -1 -1 -1 -2 -3 -2 -3 -4 -3 -1 -1 -1 -0 0 -1 -2 -2 -1 -0 -0 -1 1 2 3 1 3 4 4 2 3 4 4 1 3 3 3 3 4 3 2 2 1 2 2 -1 -2 1 3 -2 -0 -1 -2 -3 -1 1 2 3 4 4 4 2 1 0 1 1 2 2 2 2 2 1 1 1 0 -0 -1 -0 -0 0 0 0 -0 0 2 4 3 1 0 2
-1 -1 -1 -1 -1 -1 -1 -1 -1 -1 -1 -1 -1 -1 -1 -0 -1 -2 -2 -2 -3 -4 -3 -2 -2 -1 1 0 -1 -1 -1 -2 -1 -0 1 1 0 1 2 6 6 4 2 5 4 3 2 4 3 1 2 1 -1 -2 -1 0 0 -1 -5 -1 0 1 -1 4 3 -0 0 2 2 2 4 4 3 3 3 1 0 0 0 1 2 2 2 1 1 1 0 0 -0 -0 -0 -0 -0 -0 -0 -1 -1 1 4 4 2 1 5
-1 -1 -1 -1 -1 -0 -0 -1 -1 -0 -0 -0 -1 -1 -0 -0 -1 -1 -0 -2 -3 -3 -2 -2 -1 0 1 -1 -1 -1 -0 -3 -1 2 2 -3 -3 0 5 6 3 1 4 5 5 4 4 4 1 -1 -0 -2 -2 -1 0 1 1 -0 -1 1 -1 -4 -1 2 0 0 7 10 8 5 4 3 2 1 1 0 0 0 1 1 1 2 2 2 1 1 0 0 0 0 0 -0 -0 -0 -0 -0 -1 -0 1 3 2 2 3
-2 -1 -1 -1 -1 -0 -0 -1 -0 -0 -0 -0 -0 -0 -0 -0 -0 -0 0 -1 -2 -2 0 0 1 1 0 -3 -2 -1 1 -3 -1 2 -3 -8 -3 3 2 -1 -0 4 9 7 7 6 3 1 -1 -2 -1 -1 0 2 1 1 2 3 3 1 -0 -1 1 -2 -4 -3 3 7 7 5 4 2 2 1 -0 -0 -0 -0 0 1 1 1 1 1 1 1 1 1 1 1 1 0 -0 -0 -1 -1 -1 -1 -0 0 2 3 2
-3 -2 -1 -1 -1 -1 -0 -0 -1 -1 -0 1 1 0 -0 -0 -1 -1 -0 -1 -1 -1 2 2 3 1 -1 -3 -2 -1 0 -3 -2 -2 -8 -6 2 5 -4 -1 7 11 5 8 9 8 3 3 0 -0 4 1 2 2 0 2 3 4 2 2 3 4 3 0 -1 -2 -1 1 2 2 2 4 4 2 -1 -1 -2 -2 -1 -1 -0 -0 -0 -0 0 1 1 1 1 1 1 -0 -1 -1 -1 -1 -1 -1 -1 -1 1 4 4
-3 -3 -2 -1 -1 -1 -1 -0 -1 -1 -1 0 1 1 0 0 -1 -1 -1 -1 -0 0 1 2 2 2 -1 -2 -1 -1 -2 -2 -2 -3 -5 -0 4 3 -6 3 4 1 -5 12 10 4 6 1 0 3 8 2 1 1 -1 2 2 1 1 3 3 2 2 3 2 1 1 2 1 0 -0 2 1 -3 -5 -4 -4 -4 -4 -3 -2 -2 -2 -2 -1 0 1 2 2 2 0 -1 -1 -2 -2 -2 -2 -1 -1 -1 0 2 3
-4 -3 -3 -2 -2 -1 -1 -0 -1 -1 -1 -0 1 1 0 0 -0 -1 -1 -1 -0 0 1 1 2 2 1 1 1 1 -1 -1 -2 -3 -3 -2 -1 -2 -9 -4 -9 -9 6 18 9 -2 5 -4 -0 5 3 0 2 2 -0 3 1 -1 3 3 1 -0 3 3 2 2 3 2 1 0 0 -1 -4 -4 -3 -4 -4 -5 -5 -4 -4 -3 -4 -3 -2 -1 -0 1 2 1 -0 -1 -1 -1 -1 -1 -1 -1 -1 -1 -1 0 2
-4 -4 -3 -3 -2 -2 -1 -1 -1 -1 -1 -0 -0 0 0 0 0 -0 -0 -0 -0 0 1 1 1 2 2 3 3 3 1 -1 -3 -4 -4 -5 -3 -4 -9 -2 5 13 23 12 2 -2 3 4 7 7 -4 3 6 4 2 4 2 1 5 1 1 2 4 1 1 2 1 1 3 3 1 -2 -2 -1 1 -1 -2 -2 -3 -3 -3 -3 -4 -4 -3 -2 -1 0 1 1 -0 -1 -1 -1 -0 -1 -1 -1 -1 -1 -1 -1 1
-3 -3 -3 -3 -3 -3 -2 -1 -1 -1 -1 -1 -1 -0 0 0 0 0 -0 0 -0 0 1 1 2 2 2 3 3 2 1 -1 -3 -4 -4 -4 -4 -3 -3 4 5 1 -6 -8 -4 4 12 12 9 3 -2 5 5 2 1 1 2 2 3 -0 1 3 1 0 1 2 -0 3 6 6 4 3 3 3 2 2 1 1 -1 -1 -1 -2 -3 -3 -3 -2 -1 -0 0 0 -0 0 0 0 0 0 -0 -0 -0 -0 -1 -2 -1
-3 -3 -3 -3 -3 -3 -3 -2 -2 -1 -1 -1 -1 -0 -0 -0 0 0 0 0 0 0 0 1 1 1 1 1 1 1 1 0 -2 -3 -3 -4 -4 -3 -2 -3 -9 -14 -10 -5 4 12 17 7 3 0 -6 3 4 1 -2 2 3 2 -1 -0 1 1 -0 2 3 2 1 4 5 5 4 6 5 4 2 3 3 2 2 2 1 -1 -1 -1 -1 -1 -0 -0 0 0 0 1 1 1 1 0 0 -0 -0 -1 -1 -2 -1
-4 -3 -3 -3 -3 -3 -3 -3 -2 -2 -1 -1 -0 -0 -0 -0 -0 0 0 0 0 -0 -0 1 1 1 -0 -1 -0 0 1 1 0 -1 -3 -4 -4 -4 -5 -6 -4 1 7 4 8 11 5 1 1 -1 -8 14 12 1 -1 9 7 1 1 1 0 -0 1 3 3 3 4 5 4 3 5 5 3 2 3 4 3 3 5 4 3 2 1 0 0 0 0 0 1 1 1 1 1 1 1 0 -0 -0 -0 -1 -1 -2 -2
-4 -3 -3 -3 -3 -3 -3 -4 -3 -3 -2 -1 -1 -0 -0 -0 -0 0 1 0 0 -0 -0 0 1 0 -0 -1 -0 1 1 1 2 1 -1 -3 -5 -6 -4 -3 -0 1 -2 -2 1 2 -5 3 -0 -2 11 25 8 -9 6 8 4 0 4 0 -1 -1 1 2 2 3 5 4 4 5 6 2 1 1 3 2 2 4 6 5 4 4 2 1 1 1 1 1 1 1 1 1 1 0 0 0 -0 -0 -0 -1 -2 -2 -2
-4 -4 -3 -3 -4 -4 -3 -3 -4 -4 -3 -2 -1 -0 -0 -0 -0 0 0 1 0 -0 -0 -0 -0 -0 -0 -0 0 1 1 1 1 1 0 -2 -3 -4 -2 -4 -5 -6 -7 -4 -2 -1 1 4 2 7 28 7 -9 -9 20 4 -0 2 8 0 -2 -1 -0 1 2 3 5 4 4 4 3 0 1 2 1 -0 1 3 3 4 4 4 2 2 2 1 1 1 1 1 1 1 0 0 -0 -0 -0 -0 -0 -1 -2 -2 -2
-4 -4 -3 -3 -4 -4 -3 -3 -3 -4 -4 -3 -2 -1 -0 -0 -0 -0 0 1 0 -0 -0 -0 -1 -1 -1 -0 -0 -0 -1 1 1 0 -0 -0 -0 -1 -3 -6 -6 -4 -1 -1 -1 -0 3 2 6 11 12 -11 -3 14 21 -5 -3 8 9 0 -2 -2 -1 1 2 3 4 2 2 2 1 1 1 1 -2 -2 -1 0 1 2 3 3 2 2 2 2 2 2 1 1 1 1 1 0 0 -0 -0 -0 -0 -1 -1 -2 -2
Height
5829 5829 5829 5829 5828 5828 5828 5828 5828 5828 5828 5827 5827 5827 5827 5828 5828 5828 5828 5829 5829 5829 5829 5830 5831 5831 5831 5831 5832 5832 5833 5834 5834 5834 5834 5835 5835 5836 5836 5837 5838 5839 5839 5840 5840 5840 5841 5841 5842 5843 5843 5844 5845 5845 5846 5847 5848 5849 5850 5850 5851 5852 5852 5853 5853 5854 5854 5855 5855 5855 5857 5858 5858 5858 5859 5860 5860 5861 5861 5862 5863 5864 5864 5865 5865 5866 5867 5867 5868 5869 5870 5870 5871 5871 5872 5873 5873 5874 5875 5875 5876 5877 5877
5826 5826 5825 5825 5825 5825 5825 5825 5825 5825 5825 5824 5824 5824 5824 5824 5825 5825 5825 5825 5825 5825 5826 5826 5828 5829 5828 5828 5829 5829 5829 5830 5830 5831 5832 5833 5833 5833 5834 5834 5835 5835 5836 5837 5837 5838 5838 5839 5839 5840 5840 5841 5842 5843 5843 5844 5845 5847 5848 5848 5849 5850 5850 5851 5851 5852 5853 5853 5853 5853 5856 5856 5856 5857 5857 5858 5858 5859 5859 5860 5861 5862 5862 5863 5864 5864 5865 5866 5866 5867 5868 5869 5869 5870 5871 5871 5872 5872 5873 5874 5875 5875 5876
5823 5823 5822 5822 5822 5821 5821 5821 5821 5821 5821 5821 5821 5821 5821 5821 5821 5821 5822 5822 5822 5822 5823 5823 5824 5825 5825 5825 5825 5825 5826 5826 5827 5827 5828 5830 5830 5830 5830 5831 5832 5832 5833 5834 5834 5835 5835 5836 5836 5837 5838 5839 5839 5840 5841 5842 5843 5844 5845 5846 5847 5847 5848 5849 5849 5850 5851 5851 5851 5852 5853 5853 5854 5855 5855 5856 5856 5857 5857 5858 5859 5860 5860 5861 5862 5863 5863 5864 5865 5866 5866 5867 5868 5869 5869 5870 5870 5871 5872 5872 5873 5874 5875
5820 5820 5819 5819 5818 5818 5818 5818 5818 5818 5818 5818 5818 5818 5817 5818 5818 5818 5818 5818 5819 5819 5819 5820 5820 5821 5822 5822 5822 5822 5822 5823 5823 5824 5825 5825 5825 5827 5829 5830 5829 5829 5830 5830 5831 5832 5832 5833 5833 5834 5835 5836 5836 5837 5838 5839 5840 5841 5842 5844 5844 5845 5845 5846 5847 5847 5848 5849 5849 5850 5850 5850 5852 5852 5852 5853 5854 5855 5855 5856 5857 5858 5859 5860 5860 5861 5861 5862 5863 5864 5865 5866 5866 5867 5868 5869 5869 5870 5870 5871 5872 5872 5873
5817 5816 5816 5815 5815 5815 5815 5814 5814 5814 5814 5814 5814 5814 5814 5814 5814 5814 5815 5815 5815 5815 5815 5816 5816 5817 5818 5819 5818 5818 5819 5820 5820 5820 5821 5822 5822 5823 5825 5825 5825 5826 5826 5827 5828 5828 5829 5830 5830 5831 5832 5833 5834 5834 5835 5836 5837 5839 5840 5841 5842 5842 5843 5843 5844 5845 5845 5845 5847 5848 5848 5849 5850 5850 5850 5851 5851 5852 5853 5854 5855 5855 5857 5857 5858 5859 5860 5860 5861 5862 5863 5864 5865 5866 5866 5867 5868 5868 5869 5870 5870 5871 5872
5813 5813 5812 5812 5811 5811 5811 5810 5810 5810 5810 5810 5810 5810 5810 5810 5810 5811 5811 5811 5811 5811 5812 5812 5813 5813 5814 5815 5815 5814 5815 5815 5816 5817 5818 5819 5819 5820 5821 5820 5821 5822 5823 5824 5824 5825 5826 5826 5827 5828 5829 5830 5830 5831 5832 5833 5835 5836 5837 5838 5839 5840 5840 5840 5841 5842 5842 5843 5844 5845 5845 5846 5848 5848 5849 5850 5850 5850 5851 5852 5853 5854 5855 5855 5856 5857 5858 5859 5860 5860 5861 5862 5863 5864 5865 5865 5866 5867 5868 5868 5869 5870 5870
5810 5809 5809 5808 5808 5807 5807 5807 5807 5807 5806 5806 5806 5806 5806 5807 5807 5807 5807 5807 5807 5808 5808 5809 5809 5809 5810 5811 5811 5810 5811 5812 5812 5813 5815 5815 5816 5817 5817 5817 5818 5818 5819 5820 5821 5822 5822 5823 5824 5825 5825 5826 5827 5828 5829 5830 5831 5833 5834 5835 5836 5837 5837 5838 5838 5839 5840 5840 5841 5841 5842 5844 5845 5846 5847 5848 5850 5850 5849 5850 5850 5851 5852 5854 5854 5855 5856 5857 5858 5859 5860 5860 5861 5862 5863 5864 5865 5865 5866 5867 5867 5868 5869
5805 5805 5805 5805 5804 5804 5804 5803 5803 5803 5803 5803 5803 5803 5803 5803 5803 5803 5803 5803 5803 5804 5804 5805 5805 5805 5806 5806 5807 5807 5807 5808 5809 5810 5810 5811 5813 5814 5814 5814 5814 5815 5816 5816 5817 5818 5819 5820 5821 5821 5822 5823 5824 5825 5826 5827 5829 5830 5831 5832 5833 5834 5835 5835 5836 5836 5837 5838 5839 5840 5840 5841 5843 5844 5845 5846 5847 5847 5847 5848 5849 5849 5850 5851 5852 5853 5854 5855 5856 5856 5858 5859 5860 5860 5861 5862 5863 5864 5864 5865 5866 5867 5867
5801 5801 5800 5800 5800 5800 5800 5800 5799 5799 5799 5799 5799 5799 5799 5799 5799 5799 5799 5799 5800 5800 5800 5801 5801 5801 5802 5802 5802 5803 5805 5804 5805 5805 5806 5807 5809 5810 5809 5810 5811 5811 5812 5813 5814 5815 5816 5817 5817 5818 5819 5820 5821 5822 5823 5824 5825 5826 5828 5829 5830 5831 5832 5833 5833 5834 5835 5836 5836 5837 5838 5839 5840 5842 5842 5843 5844 5845 5845 5845 5846 5847 5848 5849 5850 5851 5852 5853 5854 5855 5855 5856 5857 5858 5859 5860 5861 5862 5862 5863 5864 5865 5865
5796 5796 5796 5796 5796 5795 5795 5795 5795 5795 5795 5795 5795 5795 5795 5795 5795 5795 5795 5795 5795 5796 5796 5796 5797 5797 5798 5798 5799 5799 5800 5801 5801 5801 5802 5803 5804 5805 5805 5807 5807 5807 5808 5809 5810 5811 5812 5813 5814 5815 5816 5817 5818 5819 5820 5821 5822 5823 5825 5826 5827 5828 5829 5830 5831 5831 5832 5833 5833 5834 5835 5836 5837 5839 5839 5840 5841 5843 5844 5844 5845 5845 5846 5847 5848 5849 5850 5850 5851 5852 5853 5855 5855 5856 5857 5858 5859 5860 5861 5861 5862 5863 5864
5792 5791 5791 5791 5791 5791 5791 5791 5791 5791 5790 5790 5790 5790 5790 5790 5790 5791 5791 5791 5791 5792 5792 5792 5792 5793 5793 5794 5795 5795 5795 5797 5797 5798 5798 5799 5800 5800 5801 5803 5803 5804 5805 5805 5807 5808 5809 5810 5811 5812 5812 5813 5814 5815 5817 5818 5819 5820 5821 5823 5824 5825 5826 5827 5828 5829 5830 5830 5831 5831 5831 5833 5835 5835 5836 5837 5838 5839 5840 5841 5843 5844 5843 5844 5845 5846 5847 5848 5849 5850 5851 5852 5853 5854 5855 5856 5857 5858 5859 5860 5860 5861 5862
5788 5787 5786 5786 5786 5786 5786 5786 5786 5786 5786 5786 5786 5786 5786 5786 5786 5786 5787 5787 5787 5788 5788 5788 5788 5788 5789 5789 5790 5790 5791 5792 5793 5794 5795 5795 5795 5796 5797 5798 5799 5800 5801 5802 5803 5804 5805 5806 5807 5808 5809 5810 5811 5812 5814 5815 5815 5817 5818 5819 5820 5822 5823 5824 5825 5826 5827 5827 5828 5828 5828 5829 5830 5832 5834 5834 5835 5836 5837 5839 5840 5841 5841 5842 5843 5844 5845 5846 5847 5848 5849 5850 5851 5852 5853 5854 5855 5856 5857 5858 5858 5859 5860
5783 5782 5782 5781 5781 5781 5781 5781 5781 5781 5781 5781 5781 5782 5782 5782 5782 5782 5782 5783 5783 5783 5783 5783 5784 5784 5784 5784 5785 5786 5786 5788 5788 5789 5790 5791 5791 5792 5793 5794 5795 5796 5797 5799 5800 5801 5802 5803 5804 5805 5805 5806 5807 5809 5810 5811 5812 5813 5815 5816 5817 5819 5820 5821 5822 5824 5825 5825 5825 5825 5826 5826 5827 5828 5830 5831 5832 5833 5835 5836 5837 5839 5839 5840 5841 5842 5843 5844 5845 5846 5847 5848 5849 5850 5851 5852 5853 5854 5855 5856 5856 5857 5858
5778 5777 5777 5776 5776 5776 5776 5776 5776 5776 5776 5776 5777 5777 5777 5777 5777 5778 5778 5778 5779 5779 5779 5779 5779 5779 5779 5780 5780 5781 5782 5783 5784 5785 5786 5787 5788 5788 5789 5790 5792 5793 5794 5795 5796 5797 5798 5800 5800 5801 5802 5803 5804 5805 5807 5808 5809 5810 5811 5812 5814 5815 5816 5818 5819 5821 5822 5823 5822 5822 5824 5825 5825 5826 5827 5828 5829 5830 5832 5833 5835 5835 5836 5838 5839 5839 5840 5842 5843 5844 5845 5846 5847 5848 5849 5850 5851 5852 5853 5854 5855 5855 5856
5772 5772 5771 5771 5771 5771 5770 5770 5770 5771 5771 5771 5772 5772 5772 5772 5772 5773 5773 5774 5774 5774 5774 5774 5774 5774 5775 5775 5775 5776 5777 5778 5780 5781 5782 5783 5784 5785 5785 5787 5788 5789 5791 5792 5793 5794 5795 5796 5797 5798 5799 5800 5800 5802 5803 5805 5806 5807 5808 5809 5810 5812 5813 5815 5816 5818 5819 5819 5819 5820 5822 5822 5822 5823 5823 5825 5826 5828 5829 5830 5832 5833 5834 5835 5836 5837 5839 5839 5840 5841 5842 5844 5845 5846 5847 5848 5849 5850 5851 5852 5853 5853 5854
5766 5766 5765 5765 5765 5765 5765 5765 5765 5765 5765 5766 5766 5767 5767 5767 5768 5768 5768 5768 5769 5769 5769 5769 5769 5770 5770 5770 5771 5772 5773 5774 5775 5776 5777 5778 5779 5780 5782 5783 5784 5785 5787 5788 5789 5790 5791 5792 5793 5794 5795 5796 5797 5798 5800 5801 5803 5804 5805 5806 5807 5808 5810 5811 5813 5814 5815 5815 5815 5817 5819 5819 5819 5820 5821 5822 5823 5825 5826 5828 5829 5830 5832 5833 5834 5835 5836 5837 5838 5839 5840 5841 5842 5843 5845 5846 5847 5848 5849 5850 5850 5851 5852
5760 5759 5759 5759 5759 5759 5759 5759 5759 5760 5760 5760 5761 5761 5762 5762 5762 5763 5763 5763 5763 5763 5764 5764 5765 5765 5765 5765 5766 5767 5768 5769 5770 5771 5772 5774 5775 5776 5777 5779 5780 5781 5782 5783 5784 5785 5787 5788 5789 5790 5791 5792 5793 5795 5796 5797 5799 5800 5802 5802 5804 5805 5806 5808 5809 5810 5811 5811 5812 5814 5815 5817 5817 5818 5819 5819 5820 5821 5823 5825 5826 5827 5829 5830 5831 5832 5833 5834 5835 5836 5838 5839 5840 5841 5842 5843 5845 5845 5847 5848 5849 5850 5850
5753 5752 5752 5752 5752 5752 5753 5753 5753 5753 5754 5754 5755 5755 5756 5757 5757 5757 5758 5758 5758 5758 5759 5759 5760 5760 5760 5760 5761 5762 5763 5764 5765 5766 5767 5769 5770 5771 5773 5774 5775 5776 5778 5779 5780 5781 5782 5783 5785 5786 5787 5789 5790 5791 5792 5794 5795 5797 5798 5799 5800 5801 5802 5804 5805 5807 5808 5808 5809 5810 5811 5814 5815 5816 5816 5815 5817 5819 5820 5821 5823 5824 5826 5827 5828 5830 5831 5831 5832 5834 5835 5836 5838 5839 5840 5841 5842 5843 5845 5845 5846 5847 5848
5746 5745 5745 5745 5745 5745 5746 5746 5747 5747 5747 5748 5749 5749 5750 5751 5751 5751 5752 5752 5752 5753 5753 5754 5754 5755 5755 5755 5756 5757 5758 5760 5761 5762 5763 5764 5765 5766 5767 5769 5770 5772 5773 5775 5775 5776 5778 5779 5781 5782 5783 5785 5786 5787 5788 5790 5791 5793 5794 5795 5796 5798 5799 5800 5803 5805 5805 5806 5806 5807 5808 5811 5812 5812 5812 5811 5813 5815 5817 5818 5820 5821 5823 5824 5825 5827 5828 5829 5830 5831 5833 5834 5835 5836 5838 5839 5840 5841 5842 5843 5844 5845 5846
5739 5739 5739 5738 5738 5739 5739 5739 5740 5740 5741 5742 5742 5743 5744 5744 5745 5745 5746 5746 5747 5747 5748 5748 5749 5749 5750 5750 5751 5752 5753 5755 5756 5757 5758 5759 5760 5761 5762 5764 5765 5767 5769 5770 5771 5772 5774 5775 5777 5778 5779 5780 5781 5782 5784 5785 5787 5788 5790 5791 5793 5794 5795 5797 5799 5801 5803 5803 5803 5804 5805 5807 5808 5808 5808 5809 5810 5813 5815 5815 5817 5818 5820 5821 5823 5824 5825 5827 5828 5829 5831 5832 5833 5834 5835 5836 5837 5839 5840 5841 5842 5843 5844
5732 5732 5732 5731 5731 5731 5732 5732 5733 5733 5734 5735 5736 5737 5737 5738 5738 5739 5740 5740 5741 5741 5742 5742 5743 5744 5744 5745 5746 5747 5748 5749 5750 5752 5753 5754 5755 5756 5757 5759 5760 5762 5764 5765 5767 5768 5770 5771 5773 5774 5774 5775 5776 5778 5779 5781 5782 5784 5786 5788 5789 5790 5792 5793 5795 5797 5798 5799 5800 5801 5801 5803 5803 5803 5804 5806 5808 5810 5812 5813 5814 5815 5817 5819 5820 5821 5823 5824 5825 5827 5828 5829 5830 5831 5833 5834 5835 5836 5837 5839 5840 5840 5842
5725 5725 5725 5725 5725 5725 5725 5725 5725 5726 5727 5728 5729 5730 5730 5731 5731 5732 5733 5734 5734 5735 5735 5736 5737 5738 5739 5740 5740 5741 5743 5744 5745 5747 5748 5749 5750 5751 5752 5754 5755 5757 5759 5760 5762 5763 5765 5766 5769 5770 5769 5770 5771 5773 5774 5776 5778 5780 5782 5784 5785 5787 5788 5790 5791 5792 5794 5796 5796 5797 5798 5798 5798 5800 5801 5803 5805 5807 5809 5810 5812 5813 5814 5816 5817 5819 5820 5821 5823 5824 5825 5826 5828 5829 5830 5831 5833 5834 5835 5836 5837 5838 5839
5718 5718 5718 5718 5718 5718 5718 5718 5718 5719 5720 5721 5722 5723 5723 5724 5724 5725 5726 5726 5727 5728 5729 5730 5731 5732 5733 5734 5735 5736 5737 5739 5740 5741 5743 5744 5745 5746 5747 5749 5750 5752 5754 5755 5757 5758 5760 5761 5764 5765 5765 5766 5767 5768 5769 5771 5773 5775 5778 5780 5782 5783 5785 5785 5787 5789 5790 5792 5792 5793 5794 5793 5795 5797 5798 5800 5802 5805 5806 5807 5808 5810 5811 5813 5815 5816 5817 5819 5820 5821 5822 5824 5825 5826 5828 5829 5830 5831 5832 5834 5835 5836 5837
5711 5711 5711 5711 5711 5711 5711 5711 5711 5711 5712 5714 5715 5716 5716 5716 5717 5718 5719 5720 5720 5721 5722 5723 5724 5725 5727 5728 5729 5730 5731 5733 5735 5736 5737 5739 5740 5741 5742 5743 5745 5747 5748 5750 5751 5753 5755 5757 5758 5759 5760 5762 5762 5763 5765 5767 5769 5771 5774 5776 5778 5779 5781 5781 5783 5785 5787 5787 5788 5789 5790 5790 5792 5793 5795 5797 5800 5802 5803 5803 5805 5807 5808 5810 5812 5813 5815 5816 5817 5818 5820 5821 5822 5824 5825 5826 5828 5829 5830 5831 5832 5834 5835
5704 5704 5704 5704 5704 5705 5704 5705 5705 5705 5705 5706 5708 5708 5708 5709 5710 5711 5711 5712 5713 5714 5715 5716 5718 5719 5720 5722 5723 5724 5726 5727 5729 5731 5732 5734 5735 5735 5737 5738 5740 5741 5743 5745 5746 5748 5750 5752 5753 5754 5755 5757 5757 5758 5760 5762 5765 5767 5769 5771 5773 5774 5775 5777 5778 5780 5781 5782 5783 5785 5786 5788 5788 5790 5792 5794 5795 5798 5800 5800 5802 5803 5805 5807 5809 5810 5812 5813 5815 5815 5817 5818 5820 5821 5822 5824 5825 5826 5827 5829 5830 5831 5832
5696 5697 5696 5696 5697 5697 5697 5698 5698 5698 5699 5700 5700 5700 5700 5701 5702 5703 5704 5705 5706 5707 5708 5709 5711 5712 5714 5715 5717 5718 5720 5721 5723 5725 5727 5728 5729 5730 5731 5733 5734 5735 5737 5739 5741 5743 5745 5747 5747 5748 5750 5752 5752 5753 5756 5757 5760 5762 5764 5766 5768 5769 5769 5771 5773 5775 5777 5778 5779 5780 5782 5784 5785 5786 5789 5790 5792 5794 5796 5798 5800 5801 5802 5804 5806 5808 5809 5810 5812 5813 5814 5815 5817 5818 5820 5821 5822 5824 5825 5826 5827 5829 5830
5688 5689 5689 5689 5689 5690 5690 5690 5691 5691 5692 5693 5693 5693 5693 5693 5694 5696 5697 5698 5699 5700 5701 5702 5704 5705 5707 5709 5710 5712 5714 5715 5717 5719 5721 5722 5723 5724 5725 5727 5728 5730 5732 5733 5735 5738 5740 5741 5742 5743 5745 5746 5747 5749 5751 5753 5755 5757 5760 5761 5763 5763 5765 5767 5768 5770 5773 5774 5775 5777 5779 5780 5782 5784 5785 5787 5789 5791 5792 5794 5796 5798 5800 5801 5803 5805 5806 5808 5809 5810 5811 5813 5814 5815 5817 5818 5820 5821 5822 5824 5825 5826 5827
5681 5680 5680 5680 5681 5682 5682 5683 5684 5685 5685 5685 5686 5685 5685 5685 5687 5688 5689 5690 5691 5693 5694 5695 5696 5698 5700 5702 5703 5705 5707 5709 5710 5712 5714 5716 5717 5718 5720 5721 5723 5724 5726 5728 5730 5732 5734 5735 5737 5738 5739 5740 5742 5745 5746 5748 5750 5752 5755 5756 5758 5759 5760 5763 5765 5766 5768 5770 5772 5774 5775 5777 5779 5780 5782 5784 5786 5788 5788 5790 5792 5795 5797 5798 5800 5801 5803 5805 5806 5807 5809 5810 5811 5813 5814 5815 5817 5818 5820 5821 5822 5824 5825
5674 5673 5672 5673 5673 5673 5674 5675 5676 5677 5678 5678 5678 5678 5677 5678 5679 5680 5681 5683 5684 5685 5687 5688 5689 5691 5693 5695 5696 5698 5700 5701 5704 5705 5707 5709 5711 5712 5714 5715 5717 5719 5720 5722 5724 5726 5727 5729 5731 5733 5734 5735 5737 5740 5742 5744 5745 5747 5749 5750 5752 5755 5757 5759 5760 5763 5765 5767 5770 5772 5772 5774 5776 5777 5778 5780 5783 5785 5786 5787 5789 5790 5793 5795 5797 5798 5800 5802 5803 5805 5806 5807 5809 5810 5811 5813 5814 5816 5817 5819 5820 5821 5822
5666 5665 5665 5665 5665 5665 5666 5667 5668 5669 5670 5670 5670 5670 5670 5670 5672 5673 5674 5675 5676 5678 5680 5681 5682 5684 5685 5687 5689 5690 5692 5694 5696 5698 5700 5702 5704 5706 5708 5710 5711 5713 5715 5716 5718 5720 5721 5723 5725 5727 5729 5730 5732 5735 5737 5739 5740 5742 5744 5746 5748 5750 5752 5755 5756 5759 5761 5763 5766 5769 5769 5771 5773 5774 5775 5777 5779 5780 5782 5784 5785 5787 5789 5792 5793 5794 5797 5799 5800 5802 5803 5805 5806 5807 5809 5810 5811 5813 5815 5816 5817 5819 5820
5659 5658 5658 5658 5657 5657 5658 5658 5660 5661 5662 5662 5662 5662 5662 5663 5665 5665 5666 5667 5669 5670 5672 5673 5675 5676 5678 5679 5681 5683 5685 5687 5690 5691 5693 5695 5697 5699 5701 5703 5705 5707 5709 5710 5712 5714 5716 5718 5720 5721 5723 5725 5727 5730 5732 5734 5735 5737 5739 5741 5743 5745 5747 5750 5752 5755 5757 5759 5761 5764 5766 5768 5769 5770 5772 5773 5774 5776 5779 5780 5782 5784 5786 5788 5790 5792 5793 5795 5797 5799 5800 5801 5803 5804 5805 5807 5809 5810 5812 5813 5815 5816 5817
5651 5650 5650 5650 5650 5650 5650 5650 5652 5653 5653 5654 5654 5655 5655 5656 5657 5658 5658 5660 5661 5663 5664 5666 5667 5669 5670 5672 5674 5675 5678 5680 5682 5684 5686 5688 5690 5693 5695 5697 5699 5701 5702 5705 5706 5708 5710 5712 5714 5715 5718 5720 5722 5724 5726 5728 5730 5732 5734 5736 5738 5740 5743 5745 5747 5750 5752 5755 5757 5759 5762 5763 5765 5766 5768 5769 5770 5772 5775 5777 5779 5780 5781 5784 5786 5788 5790 5793 5795 5796 5796 5798 5799 5801 5802 5804 5805 5807 5809 5810 5812 5813 5815
5644 5643 5643 5642 5642 5642 5643 5644 5644 5644 5644 5645 5646 5647 5647 5649 5650 5650 5651 5653 5654 5655 5656 5658 5660 5661 5663 5665 5666 5668 5670 5673 5675 5677 5679 5681 5683 5685 5688 5690 5692 5695 5696 5699 5700 5702 5704 5706 5709 5711 5713 5715 5717 5719 5721 5724 5725 5727 5729 5731 5734 5736 5738 5740 5742 5745 5747 5750 5752 5755 5757 5758 5760 5762 5763 5765 5767 5769 5771 5773 5775 5777 5778 5780 5782 5785 5787 5789 5790 5792 5794 5794 5795 5797 5799 5800 5802 5804 5805 5807 5809 5810 5812
5636 5636 5635 5635 5635 5635 5635 5636 5637 5637 5636 5637 5638 5639 5640 5641 5642 5643 5644 5645 5646 5647 5649 5650 5652 5654 5655 5657 5659 5660 5663 5665 5667 5669 5672 5674 5676 5679 5681 5684 5686 5688 5690 5693 5695 5696 5699 5701 5703 5705 5707 5709 5711 5714 5716 5718 5720 5722 5725 5727 5729 5731 5733 5735 5738 5740 5742 5745 5747 5750 5752 5753 5755 5757 5759 5761 5763 5765 5767 5770 5771 5773 5775 5777 5780 5781 5784 5785 5787 5789 5790 5792 5792 5793 5795 5796 5798 5800 5802 5804 5805 5807 5809
5629 5629 5628 5627 5627 5627 5628 5629 5630 5630 5630 5630 5630 5630 5632 5633 5635 5635 5636 5638 5639 5640 5641 5643 5644 5646 5648 5650 5652 5653 5655 5657 5659 5662 5665 5667 5669 5672 5674 5677 5679 5682 5684 5687 5689 5691 5693 5695 5697 5699 5701 5703 5705 5707 5710 5713 5715 5717 5720 5722 5724 5726 5729 5731 5733 5735 5737 5740 5742 5745 5747 5749 5750 5752 5754 5757 5759 5761 5763 5765 5768 5770 5771 5774 5776 5778 5780 5783 5783 5785 5787 5789 5790 5791 5792 5793 5795 5796 5798 5800 5802 5804 5806
5622 5621 5621 5620 5620 5620 5621 5622 5622 5622 5622 5622 5623 5623 5624 5625 5626 5628 5629 5630 5631 5632 5634 5635 5637 5639 5640 5642 5644 5646 5647 5649 5652 5655 5657 5660 5662 5665 5667 5670 5672 5675 5678 5680 5682 5685 5687 5689 5691 5693 5695 5697 5699 5701 5704 5707 5710 5712 5715 5717 5719 5722 5724 5726 5728 5730 5733 5735 5738 5740 5743 5745 5746 5748 5750 5752 5754 5757 5760 5762 5764 5766 5768 5771 5773 5775 5776 5779 5780 5781 5783 5785 5786 5788 5790 5790 5791 5793 5795 5797 5799 5801 5802
5615 5614 5614 5614 5613 5614 5614 5615 5615 5615 5615 5615 5615 5616 5617 5617 5619 5620 5622 5623 5624 5625 5626 5628 5630 5631 5633 5635 5637 5638 5640 5642 5645 5648 5650 5652 5655 5658 5661 5663 5665 5668 5671 5673 5675 5678 5681 5683 5685 5687 5689 5691 5693 5696 5699 5701 5704 5707 5710 5712 5714 5717 5719 5722 5724 5726 5728 5730 5733 5735 5738 5740 5742 5744 5745 5748 5750 5753 5755 5758 5760 5762 5765 5767 5769 5770 5773 5775 5777 5779 5780 5781 5782 5784 5786 5788 5789 5790 5792 5794 5796 5798 5800
5608 5608 5607 5607 5607 5607 5608 5608 5608 5608 5609 5609 5609 5609 5609 5610 5611 5612 5614 5615 5617 5618 5619 5621 5622 5624 5625 5627 5629 5631 5633 5635 5638 5640 5642 5645 5648 5651 5654 5655 5658 5661 5664 5665 5668 5671 5674 5676 5678 5680 5683 5685 5688 5690 5693 5696 5699 5702 5704 5707 5709 5712 5714 5717 5719 5721 5724 5726 5728 5730 5733 5735 5737 5739 5741 5744 5746 5749 5751 5754 5756 5759 5761 5763 5765 5766 5770 5771 5774 5776 5777 5778 5780 5781 5783 5785 5787 5789 5790 5791 5793 5795 5796
5602 5601 5601 5601 5601 5601 5601 5601 5601 5602 5602 5602 5602 5602 5602 5603 5604 5605 5607 5608 5609 5610 5612 5614 5615 5616 5618 5620 5622 5624 5625 5628 5630 5633 5635 5638 5641 5644 5646 5648 5651 5654 5656 5658 5661 5665 5667 5669 5672 5674 5676 5679 5681 5684 5687 5690 5693 5696 5699 5701 5704 5706 5709 5711 5714 5717 5719 5721 5724 5726 5728 5730 5732 5735 5737 5739 5741 5744 5747 5749 5752 5755 5757 5759 5761 5763 5765 5767 5769 5772 5774 5774 5775 5778 5780 5783 5784 5785 5786 5788 5790 5792 5794
5595 5595 5595 5595 5595 5595 5594 5595 5595 5595 5595 5595 5595 5595 5595 5596 5597 5598 5599 5601 5602 5603 5605 5606 5608 5609 5611 5613 5615 5616 5619 5621 5623 5625 5628 5631 5634 5636 5638 5641 5644 5647 5649 5652 5655 5658 5660 5663 5665 5668 5670 5672 5675 5678 5681 5685 5687 5690 5693 5695 5698 5700 5703 5706 5709 5711 5714 5716 5719 5721 5723 5725 5727 5730 5732 5735 5737 5740 5742 5745 5747 5750 5752 5754 5757 5759 5761 5763 5765 5767 5769 5770 5771 5774 5775 5779 5780 5781 5783 5785 5786 5788 5790
5589 5589 5589 5588 5588 5588 5588 5588 5588 5589 5589 5588 5588 5588 5588 5589 5590 5590 5592 5594 5595 5596 5597 5599 5600 5602 5604 5605 5607 5609 5611 5614 5616 5618 5620 5623 5626 5628 5630 5634 5637 5640 5642 5645 5648 5651 5654 5657 5660 5662 5664 5666 5669 5673 5676 5679 5681 5684 5687 5690 5692 5694 5697 5700 5703 5705 5708 5711 5714 5716 5718 5720 5723 5725 5727 5730 5732 5735 5738 5740 5743 5745 5748 5750 5752 5754 5756 5759 5761 5763 5765 5766 5768 5770 5772 5774 5776 5778 5780 5782 5784 5785 5787
5583 5583 5583 5582 5582 5582 5582 5582 5582 5582 5582 5582 5581 5581 5581 5582 5583 5583 5585 5586 5588 5589 5590 5591 5593 5595 5596 5598 5600 5602 5604 5606 5609 5611 5613 5616 5618 5620 5623 5626 5630 5632 5635 5638 5641 5644 5647 5650 5653 5655 5658 5661 5664 5667 5670 5672 5675 5678 5681 5684 5686 5688 5691 5694 5697 5700 5703 5706 5708 5711 5713 5716 5718 5720 5723 5725 5728 5730 5733 5735 5738 5741 5743 5745 5748 5750 5753 5754 5756 5759 5762 5763 5765 5767 5769 5770 5771 5774 5776 5779 5781 5783 5784
5577 5576 5576 5576 5575 5575 5575 5575 5575 5575 5575 5575 5575 5575 5575 5575 5575 5576 5578 5579 5581 5582 5583 5584 5585 5587 5589 5591 5593 5595 5597 5599 5601 5603 5605 5608 5611 5613 5616 5619 5622 5625 5628 5631 5635 5638 5640 5643 5646 5649 5652 5655 5659 5661 5664 5666 5669 5672 5675 5677 5680 5683 5686 5689 5692 5695 5697 5700 5703 5706 5709 5711 5714 5715 5718 5721 5723 5726 5729 5731 5734 5736 5739 5741 5743 5746 5748 5750 5752 5755 5757 5759 5761 5763 5765 5766 5768 5770 5772 5775 5778 5780 5781
5570 5570 5570 5570 5569 5569 5569 5569 5569 5569 5569 5569 5568 5568 5569 5569 5569 5570 5571 5572 5573 5575 5576 5577 5578 5580 5581 5583 5585 5587 5589 5591 5594 5596 5598 5601 5604 5606 5609 5612 5615 5618 5621 5625 5628 5631 5634 5637 5640 5642 5645 5649 5652 5655 5657 5660 5663 5665 5668 5671 5675 5678 5680 5683 5686 5689 5692 5695 5698 5700 5704 5706 5708 5710 5713 5716 5719 5721 5724 5727 5729 5732 5734 5737 5739 5741 5744 5746 5748 5751 5753 5755 5758 5759 5761 5763 5765 5767 5769 5771 5774 5776 5779
5564 5564 5563 5563 5563 5563 5563 5563 5563 5563 5562 5562 5562 5562 5562 5562 5562 5563 5564 5565 5566 5568 5569 5570 5571 5572 5574 5576 5578 5579 5581 5584 5585 5588 5591 5594 5597 5599 5602 5605 5608 5611 5614 5618 5621 5624 5627 5630 5633 5636 5639 5642 5645 5648 5651 5654 5656 5659 5661 5665 5668 5672 5674 5677 5680 5683 5686 5689 5692 5695 5698 5701 5704 5706 5708 5711 5713 5716 5719 5722 5725 5727 5730 5732 5735 5737 5739 5741 5744 5746 5749 5752 5754 5755 5757 5759 5761 5764 5765 5768 5770 5772 5774
5557 5557 5557 5556 5556 5556 5556 5556 5556 5556 5556 5556 5556 5556 5556 5556 5556 5557 5557 5558 5559 5560 5562 5563 5564 5565 5567 5568 5570 5571 5574 5575 5578 5580 5584 5586 5589 5592 5595 5598 5600 5604 5607 5610 5614 5616 5620 5623 5626 5629 5632 5635 5638 5641 5644 5647 5649 5652 5655 5658 5661 5665 5668 5671 5674 5676 5680 5683 5686 5689 5692 5695 5698 5701 5703 5705 5708 5711 5714 5717 5720 5722 5725 5728 5730 5732 5735 5737 5740 5742 5745 5748 5750 5751 5753 5756 5758 5760 5762 5764 5766 5768 5770
5550 5550 5550 5550 5549 5549 5549 5549 5549 5549 5549 5549 5550 5550 5550 5550 5550 5550 5551 5551 5552 5554 5555 5556 5557 5559 5560 5561 5562 5564 5566 5568 5570 5573 5576 5579 5581 5585 5588 5591 5593 5596 5600 5603 5606 5610 5613 5616 5619 5622 5625 5628 5630 5633 5636 5639 5641 5644 5648 5652 5655 5658 5661 5664 5667 5670 5673 5676 5680 5683 5686 5690 5693 5695 5698 5700 5703 5705 5709 5711 5715 5717 5720 5723 5725 5728 5730 5732 5735 5738 5740 5743 5745 5747 5749 5751 5754 5756 5758 5760 5762 5765 5767
5543 5543 5543 5542 5542 5542 5542 5542 5542 5542 5542 5542 5543 5543 5543 5543 5544 5544 5544 5545 5546 5547 5548 5549 5551 5552 5554 5555 5555 5557 5558 5560 5563 5565 5568 5570 5574 5577 5580 5583 5586 5590 5593 5596 5599 5603 5606 5609 5612 5615 5617 5620 5622 5625 5628 5630 5634 5637 5640 5645 5649 5653 5656 5660 5662 5665 5668 5671 5674 5677 5680 5684 5687 5690 5692 5695 5697 5700 5703 5706 5709 5712 5715 5718 5720 5723 5725 5728 5730 5733 5735 5738 5741 5743 5745 5747 5750 5752 5754 5756 5759 5761 5764
5537 5536 5536 5535 5535 5535 5535 5535 5535 5535 5535 5535 5536 5536 5536 5537 5537 5538 5538 5539 5540 5541 5542 5543 5545 5546 5547 5548 5549 5550 5551 5553 5555 5557 5560 5563 5566 5570 5572 5575 5579 5583 5586 5589 5592 5595 5598 5601 5604 5607 5609 5612 5615 5617 5620 5624 5627 5631 5634 5638 5642 5646 5650 5654 5657 5661 5665 5668 5670 5672 5675 5678 5681 5684 5687 5690 5692 5695 5698 5701 5704 5707 5710 5713 5715 5718 5721 5723 5726 5729 5731 5734 5736 5739 5741 5743 5745 5748 5751 5752 5755 5758 5760
5531 5530 5530 5529 5529 5528 5528 5528 5528 5528 5528 5529 5529 5529 5530 5530 5531 5531 5532 5532 5533 5535 5536 5537 5539 5539 5540 5541 5542 5543 5544 5546 5547 5550 5553 5556 5559 5561 5564 5568 5571 5575 5578 5581 5584 5587 5590 5593 5596 5599 5602 5605 5608 5611 5615 5619 5622 5625 5628 5632 5636 5639 5643 5646 5650 5654 5659 5663 5665 5666 5669 5672 5675 5678 5681 5684 5687 5690 5693 5695 5699 5702 5705 5708 5710 5713 5716 5719 5722 5724 5727 5730 5732 5734 5736 5739 5742 5745 5747 5750 5752 5754 5756
5525 5525 5524 5523 5523 5522 5522 5521 5522 5522 5522 5522 5522 5522 5523 5524 5524 5525 5525 5526 5527 5529 5530 5532 5532 5533 5534 5535 5536 5537 5538 5539 5541 5543 5546 5548 5550 5552 5555 5559 5562 5566 5570 5574 5578 5580 5582 5585 5588 5591 5595 5599 5603 5606 5609 5613 5616 5619 5623 5626 5630 5633 5637 5640 5644 5647 5651 5654 5657 5661 5664 5667 5670 5673 5676 5679 5681 5684 5687 5690 5693 5696 5699 5703 5705 5709 5711 5715 5717 5720 5723 5725 5728 5730 5732 5735 5737 5740 5742 5745 5748 5750 5753
5520 5519 5518 5518 5517 5516 5516 5515 5515 5515 5515 5515 5516 5516 5516 5517 5517 5518 5519 5520 5521 5523 5524 5525 5526 5526 5527 5528 5529 5531 5532 5534 5535 5537 5539 5540 5541 5544 5548 5551 5556 5560 5564 5567 5570 5572 5573 5576 5580 5585 5590 5593 5596 5600 5603 5606 5610 5613 5616 5620 5624 5628 5632 5635 5638 5641 5645 5648 5651 5655 5659 5663 5665 5666 5670 5672 5675 5679 5682 5685 5688 5691 5694 5698 5701 5704 5707 5710 5713 5715 5718 5720 5723 5726 5728 5730 5733 5735 5738 5741 5744 5746 5750
5516 5515 5514 5513 5512 5511 5510 5510 5510 5509 5509 5509 5510 5510 5510 5510 5511 5511 5512 5513 5515 5516 5517 5519 5520 5521 5522 5523 5524 5525 5527 5528 5528 5530 5532 5532 5534 5538 5542 5546 5550 5554 5555 5557 5560 5563 5565 5569 5574 5579 5583 5586 5589 5593 5596 5599 5603 5606 5610 5614 5618 5621 5625 5629 5632 5635 5639 5643 5646 5650 5654 5655 5657 5660 5663 5666 5670 5673 5676 5680 5683 5686 5689 5692 5696 5699 5702 5705 5708 5711 5713 5716 5719 5721 5724 5726 5729 5731 5734 5737 5740 5743 5746
5511 5510 5509 5508 5507 5506 5505 5505 5504 5504 5504 5503 5503 5504 5504 5504 5505 5505 5506 5507 5508 5510 5511 5512 5513 5515 5516 5518 5519 5520 5520 5521 5522 5524 5525 5527 5529 5532 5536 5539 5540 5541 5543 5548 5553 5556 5559 5562 5566 5571 5575 5578 5582 5586 5590 5593 5597 5600 5603 5607 5611 5614 5618 5622 5626 5630 5634 5637 5640 5644 5648 5649 5651 5655 5658 5662 5665 5668 5671 5675 5678 5681 5684 5687 5690 5694 5697 5700 5703 5706 5709 5711 5714 5717 5720 5722 5725 5727 5730 5733 5735 5738 5741
5507 5506 5505 5504 5502 5501 5501 5500 5499 5499 5498 5498 5498 5498 5498 5498 5499 5499 5500 5501 5502 5503 5505 5505 5507 5509 5511 5512 5513 5514 5515 5516 5517 5518 5520 5521 5523 5526 5528 5529 5530 5533 5537 5544 5548 5550 5551 5554 5558 5563 5567 5571 5575 5580 5583 5587 5590 5593 5597 5601 5604 5608 5612 5616 5620 5624 5627 5630 5634 5638 5642 5645 5647 5650 5654 5657 5660 5664 5667 5670 5673 5676 5679 5682 5685 5689 5692 5695 5698 5701 5704 5707 5710 5713 5715 5718 5721 5723 5726 5729 5731 5734 5737
5503 5502 5501 5500 5498 5497 5496 5495 5495 5494 5493 5493 5493 5492 5492 5492 5493 5493 5494 5495 5495 5497 5498 5500 5501 5503 5505 5506 5507 5509 5510 5511 5512 5513 5514 5515 5517 5519 5520 5522 5526 5530 5534 5538 5540 5540 5541 5545 5551 5556 5560 5564 5568 5573 5576 5580 5583 5586 5590 5594 5597 5601 5605 5609 5613 5617 5621 5625 5629 5634 5637 5640 5643 5646 5649 5652 5656 5660 5663 5665 5669 5672 5675 5678 5681 5684 5687 5690 5694 5696 5699 5702 5705 5708 5711 5714 5717 5719 5722 5725 5727 5730 5732
5499 5498 5496 5495 5494 5493 5492 5491 5490 5490 5489 5488 5488 5487 5487 5487 5487 5488 5488 5489 5490 5490 5492 5493 5495 5496 5497 5499 5501 5503 5505 5506 5507 5508 5509 5510 5511 5513 5515 5518 5520 5523 5525 5527 5528 5530 5533 5539 5546 5551 5552 5555 5560 5565 5568 5572 5576 5580 5583 5587 5590 5595 5599 5603 5607 5611 5615 5620 5624 5628 5630 5634 5637 5641 5644 5647 5651 5655 5658 5661 5665 5667 5670 5673 5676 5680 5683 5686 5689 5692 5695 5698 5701 5704 5707 5710 5712 5715 5718 5720 5723 5726 5729
5495 5494 5492 5491 5490 5489 5487 5486 5486 5485 5484 5484 5483 5483 5482 5482 5482 5482 5483 5483 5484 5485 5485 5487 5488 5490 5491 5492 5495 5497 5499 5501 5502 5503 5504 5505 5506 5508 5510 5511 5512 5514 5516 5519 5521 5525 5529 5535 5541 5543 5542 5547 5553 5558 5560 5566 5571 5574 5577 5580 5584 5588 5592 5596 5601 5605 5609 5614 5617 5621 5624 5628 5631 5635 5638 5642 5646 5650 5653 5657 5660 5663 5666 5669 5672 5675 5678 5681 5684 5687 5690 5693 5696 5699 5702 5705 5708 5711 5714 5716 5719 5721 5725
5491 5490 5488 5487 5486 5485 5483 5482 5481 5480 5480 5480 5479 5479 5478 5478 5477 5477 5477 5478 5478 5479 5480 5481 5482 5483 5485 5487 5489 5491 5494 5495 5497 5498 5500 5501 5502 5503 5504 5505 5506 5509 5512 5514 5517 5521 5525 5529 5532 5533 5534 5542 5547 5550 5552 5559 5564 5566 5570 5573 5577 5581 5585 5590 5595 5599 5603 5607 5610 5614 5618 5621 5625 5628 5632 5636 5640 5644 5648 5652 5655 5659 5662 5665 5668 5671 5674 5677 5680 5683 5686 5689 5692 5695 5698 5701 5704 5707 5709 5712 5715 5717 5720
5487 5485 5484 5483 5481 5480 5479 5478 5477 5476 5475 5475 5475 5474 5474 5473 5473 5473 5473 5473 5473 5473 5474 5475 5476 5477 5479 5481 5483 5486 5488 5490 5491 5493 5495 5496 5497 5498 5499 5500 5502 5504 5506 5507 5510 5513 5517 5520 5522 5524 5529 5537 5540 5541 5544 5550 5555 5558 5563 5566 5570 5574 5579 5584 5588 5592 5596 5600 5604 5607 5611 5615 5618 5622 5626 5630 5635 5639 5643 5646 5650 5653 5657 5660 5663 5667 5670 5673 5675 5679 5681 5684 5687 5690 5693 5696 5700 5702 5705 5708 5710 5713 5716
5483 5481 5480 5479 5477 5476 5475 5474 5473 5472 5471 5471 5470 5470 5470 5469 5468 5468 5468 5468 5468 5468 5469 5470 5470 5472 5473 5475 5477 5480 5482 5484 5486 5488 5490 5491 5492 5493 5495 5496 5497 5498 5500 5501 5504 5506 5509 5511 5514 5518 5524 5529 5531 5533 5538 5542 5546 5551 5557 5560 5564 5568 5573 5577 5581 5585 5589 5593 5596 5600 5605 5608 5612 5616 5620 5624 5628 5633 5637 5641 5645 5648 5652 5655 5659 5662 5665 5669 5672 5675 5677 5680 5683 5686 5689 5692 5695 5698 5701 5704 5706 5709 5712